QPF
0.00 0.00 0.00 0.01 0.24 0.21 0.04 0.00 0.00 0.01 0.00 0.00 0.00 0.00 0.00 0.01 0.06 0.10 0.01 0.00 0.00 0.00 0.00 0.00 0.00 0.00 0.01 0.05 0.00 0.00 0.00 0.00 0.00 0.00 0.00 0.00 0.00 0.00 0.00 0.00 0.00 0.00 0.00 0.00 0.00 0.02 0.06 0.05 0.06
0.00 0.00 0.01 0.22 0.06 0.14 0.03 0.00 0.00 0.00 0.00 0.00 0.00 0.00 0.01 0.00 0.00 0.00 0.00 0.00 0.00 0.00 0.00 0.00 0.00 0.00 0.00 0.01 0.00 0.00 0.00 0.00 0.00 0.00 0.00 0.00 0.00 0.00 0.00 0.00 0.00 0.00 0.00 0.00 0.00 0.03 0.13 0.08 0.15
0.00 0.01 0.02 0.18 0.27 0.11 0.00 0.00 0.00 0.00 0.00 0.00 0.00 0.00 0.00 0.00 0.00 0.00 0.00 0.00 0.00 0.00 0.00 0.00 0.00 0.00 0.00 0.00 0.00 0.00 0.00 0.00 0.00 0.00 0.00 0.00 0.00 0.00 0.00 0.00 0.00 0.00 0.00 0.00 0.00 0.01 0.10 0.05 0.05
0.00 0.01 0.00 0.00 0.12 0.03 0.00 0.00 0.00 0.00 0.00 0.00 0.00 0.04 0.00 0.00 0.00 0.00 0.00 0.00 0.00 0.00 0.00 0.00 0.00 0.00 0.00 0.00 0.00 0.00 0.00 0.00 0.00 0.00 0.00 0.00 0.00 0.00 0.00 0.00 0.00 0.00 0.00 0.00 0.00 0.00 0.13 0.16 0.11
0.00 0.00 0.00 0.00 0.00 0.00 0.00 0.00 0.00 0.02 0.00 0.00 0.00 0.02 0.00 0.00 0.00 0.00 0.00 0.02 0.00 0.00 0.00 0.00 0.00 0.00 0.00 0.00 0.00 0.00 0.00 0.00 0.00 0.00 0.00 0.00 0.00 0.00 0.00 0.00 0.00 0.00 0.00 0.00 0.00 0.00 0.03 0.07 0.08
0.00 0.00 0.00 0.00 0.00 0.00 0.00 0.00 0.00 0.00 0.01 0.00 0.00 0.00 0.00 0.00 0.00 0.00 0.00 0.01 0.00 0.00 0.00 0.00 0.00 0.00 0.00 0.00 0.00 0.00 0.00 0.00 0.00 0.00 0.00 0.00 0.00 0.00 0.00 0.00 0.00 0.00 0.00 0.01 0.00 0.00 0.00 0.00 0.02
0.00 0.00 0.00 0.00 0.00 0.00 0.00 0.00 0.00 0.01 0.26 0.02 0.02 0.23 0.13 0.00 0.00 0.00 0.00 0.00 0.00 0.00 0.00 0.00 0.00 0.00 0.00 0.00 0.00 0.00 0.00 0.00 0.00 0.00 0.00 0.01 0.01 0.01 0.01 0.01 0.01 0.00 0.00 0.01 0.00 0.00 0.00 0.00 0.00
0.00 0.00 0.00 0.00 0.00 0.00 0.00 0.00 0.00 0.00 0.01 0.00 0.01 0.46 0.36 0.00 0.00 0.00 0.00 0.01 0.00 0.01 0.00 0.00 0.00 0.00 0.00 0.00 0.00 0.00 0.00 0.00 0.00 0.00 0.00 0.01 0.02 0.03 0.01 0.00 0.02 0.00 0.00 0.00 0.00 0.00 0.00 0.00 0.00
0.00 0.00 0.00 0.00 0.00 0.00 0.00 0.00 0.00 0.00 0.00 0.00 0.00 0.03 0.00 0.00 0.00 0.00 0.00 0.00 0.00 0.00 0.00 0.00 0.00 0.00 0.00 0.00 0.00 0.00 0.00 0.00 0.00 0.00 0.00 0.01 0.05 0.20 0.09 0.00 0.04 0.00 0.00 0.00 0.00 0.00 0.00 0.00 0.00
0.00 0.00 0.00 0.00 0.00 0.00 0.00 0.00 0.00 0.00 0.03 0.01 0.00 0.01 0.00 0.00 0.00 0.00 0.00 0.00 0.00 0.00 0.01 0.00 0.00 0.00 0.00 0.00 0.06 0.00 0.00 0.00 0.00 0.00 0.02 0.02 0.24 0.80 0.04 0.05 0.04 0.00 0.00 0.00 0.00 0.00 0.00 0.00 0.01
0.00 0.00 0.00 0.00 0.00 0.00 0.00 0.00 0.00 0.00 0.06 0.19 0.01 0.01 0.00 0.00 0.00 0.00 0.00 0.00 0.00 0.00 0.00 0.00 0.00 0.00 0.00 0.00 0.01 0.00 0.00 0.00 0.00 0.03 0.03 0.09 0.34 0.01 0.01 0.24 0.39 0.10 0.02 0.01 0.00 0.00 0.00 0.01 0.05
0.00 0.00 0.00 0.00 0.00 0.00 0.00 0.00 0.00 0.00 0.02 0.03 0.01 0.00 0.00 0.00 0.00 0.00 0.00 0.00 0.00 0.00 0.00 0.13 0.04 0.00 0.00 0.00 0.00 0.00 0.00 0.00 0.00 0.00 0.00 0.03 0.02 0.02 0.02 0.11 1.01 0.10 0.04 0.04 0.07 0.04 0.01 0.00 0.00
0.00 0.00 0.00 0.00 0.00 0.00 0.00 0.00 0.00 0.00 0.00 0.00 0.00 0.01 0.00 0.00 0.00 0.00 0.00 0.00 0.00 0.00 0.00 0.00 0.00 0.00 0.00 0.00 0.00 0.00 0.00 0.00 0.00 0.00 0.00 0.00 0.00 0.01 0.02 0.05 0.07 0.28 0.12 0.09 0.10 0.05 0.06 0.03 0.00
0.00 0.00 0.00 0.00 0.00 0.00 0.00 0.00 0.00 0.01 0.00 0.00 0.00 0.00 0.00 0.00 0.01 0.00 0.00 0.00 0.00 0.00 0.00 0.00 0.00 0.00 0.00 0.00 0.00 0.01 0.00 0.00 0.00 0.00 0.00 0.00 0.00 0.05 0.08 0.13 0.89 0.10 0.13 0.07 0.12 0.19 0.10 0.04 0.00
0.00 0.00 0.00 0.00 0.00 0.00 0.00 0.00 0.00 0.02 0.00 0.00 0.00 0.00 0.00 0.00 0.00 0.00 0.00 0.00 0.00 0.00 0.00 0.00 0.00 0.00 0.00 0.00 0.00 0.00 0.00 0.00 0.00 0.00 0.00 0.00 0.00 0.01 0.09 0.11 0.21 0.17 0.76 0.14 0.15 0.10 0.07 0.08 0.03
0.00 0.00 0.00 0.00 0.00 0.00 0.00 0.00 0.09 0.19 0.00 0.00 0.00 0.00 0.00 0.00 0.00 0.00 0.00 0.00 0.00 0.00 0.00 0.01 0.00 0.00 0.00 0.00 0.01 0.01 0.00 0.08 0.00 0.00 0.00 0.00 0.00 0.02 0.13 0.35 0.06 0.06 0.07 0.10 0.39 0.19 0.04 0.05 0.06
0.00 0.00 0.00 0.00 0.00 0.00 0.00 0.00 0.00 0.00 0.00 0.00 0.00 0.00 0.00 0.00 0.00 0.00 0.00 0.00 0.00 0.00 0.00 0.05 0.00 0.00 0.00 0.00 0.02 0.06 0.01 0.08 0.01 0.00 0.00 0.00 0.00 0.00 0.06 0.31 0.09 0.02 0.03 0.04 0.35 0.34 0.35 0.57 0.11
0.00 0.00 0.00 0.00 0.00 0.00 0.00 0.00 0.00 0.00 0.00 0.00 0.00 0.00 0.00 0.00 0.00 0.00 0.00 0.00 0.00 0.00 0.00 0.00 0.00 0.00 0.00 0.03 0.07 0.09 0.04 0.02 0.00 0.00 0.00 0.00 0.00 0.00 0.00 0.02 0.02 0.00 0.00 0.00 0.07 0.13 0.31 0.16 0.20
0.00 0.00 0.00 0.00 0.00 0.00 0.00 0.00 0.00 0.00 0.00 0.00 0.00 0.00 0.01 0.01 0.00 0.01 0.00 0.00 0.00 0.00 0.00 0.00 0.00 0.02 0.03 0.02 0.08 0.12 0.00 0.02 0.01 0.00 0.00 0.00 0.00 0.00 0.00 0.00 0.00 0.00 0.00 0.00 0.01 0.03 0.02 0.04 0.09
0.00 0.00 0.00 0.00 0.00 0.00 0.00 0.00 0.00 0.01 0.00 0.01 0.00 0.00 0.05 0.20 0.14 0.00 0.00 0.00 0.00 0.00 0.00 0.00 0.00 0.00 0.01 0.00 0.03 0.04 0.00 0.00 0.01 0.00 0.01 0.00 0.00 0.00 0.00 0.00 0.00 0.02 0.05 0.07 0.05 0.03 0.02 0.05 0.05
0.00 0.00 0.00 0.00 0.00 0.00 0.00 0.00 0.07 0.08 0.06 0.01 0.00 0.00 0.00 0.06 0.13 0.02 0.00 0.00 0.00 0.00 0.00 0.00 0.00 0.00 0.01 0.08 0.12 0.16 0.06 0.03 0.04 0.03 0.03 0.00 0.00 0.00 0.00 0.01 0.01 0.03 0.02 0.10 0.28 0.03 0.03 0.04 0.10
0.00 0.00 0.00 0.00 0.00 0.00 0.00 0.01 0.01 0.10 0.32 0.10 0.01 0.00 0.00 0.00 0.01 0.01 0.00 0.00 0.00 0.00 0.00 0.00 0.00 0.00 0.01 0.07 0.06 0.02 0.00 0.00 0.01 0.00 0.00 0.00 0.00 0.00 0.00 0.00 0.00 0.01 0.04 0.16 0.06 0.02 0.02 0.02 0.02
0.00 0.00 0.00 0.00 0.00 0.00 0.00 0.00 0.05 0.17 0.10 0.05 0.01 0.01 0.00 0.00 0.00 0.03 0.01 0.18 0.21 0.12 0.03 0.00 0.00 0.01 0.02 0.01 0.01 0.06 0.02 0.00 0.03 0.02 0.03 0.03 0.01 0.01 0.00 0.00 0.00 0.01 0.01 0.03 0.03 0.02 0.01 0.03 0.05
0.00 0.00 0.00 0.00 0.00 0.00 0.00 0.00 0.00 0.00 0.00 0.00 0.00 0.00 0.00 0.00 0.00 0.06 0.00 0.09 0.37 0.81 0.33 0.10 0.00 0.03 0.03 0.00 0.02 0.07 0.04 0.00 0.04 0.29 0.23 0.01 0.01 0.01 0.00 0.01 0.02 0.03 0.01 0.01 0.01 0.03 0.01 0.02 0.04
0.00 0.00 0.00 0.00 0.00 0.00 0.00 0.00 0.00 0.00 0.00 0.00 0.00 0.00 0.00 0.00 0.00 0.00 0.00 0.09 0.20 0.68 0.13 0.08 0.01 0.01 0.00 0.00 0.00 0.05 0.12 0.06 0.05 0.10 0.07 0.01 0.00 0.00 0.00 0.00 0.02 0.02 0.02 0.01 0.01 0.06 0.02 0.03 0.02
0.00 0.00 0.00 0.00 0.00 0.00 0.00 0.00 0.03 0.03 0.01 0.00 0.00 0.00 0.00 0.00 0.00 0.00 0.00 0.10 0.14 0.27 0.08 0.07 0.04 0.02 0.02 0.00 0.01 0.04 0.08 0.02 0.03 0.02 0.03 0.01 0.00 0.00 0.00 0.02 0.02 0.03 0.04 0.05 0.02 0.01 0.01 0.12 0.10
0.00 0.00 0.00 0.00 0.00 0.00 0.00 0.00 0.02 0.13 0.20 0.02 0.01 0.00 0.00 0.00 0.00 0.00 0.00 0.01 0.13 0.31 0.09 0.04 0.01 0.06 0.04 0.01 0.06 0.03 0.03 0.06 0.01 0.01 0.04 0.00 0.00 0.00 0.00 0.02 0.03 0.02 0.03 0.05 0.09 0.01 0.05 0.09 0.05
0.00 0.00 0.00 0.00 0.00 0.00 0.00 0.00 0.01 0.12 0.22 0.01 0.01 0.00 0.00 0.00 0.00 0.00 0.00 0.00 0.00 0.01 0.00 0.03 0.00 0.02 0.03 0.01 0.12 0.05 0.02 0.04 0.04 0.06 0.01 0.00 0.01 0.00 0.03 0.07 0.06 0.04 0.02 0.06 0.10 0.04 0.09 0.13 0.05
0.00 0.00 0.00 0.00 0.00 0.00 0.00 0.00 0.00 0.00 0.00 0.00 0.00 0.00 0.00 0.00 0.00 0.00 0.00 0.00 0.00 0.00 0.00 0.03 0.02 0.01 0.01 0.01 0.05 0.14 0.07 0.00 0.02 0.06 0.01 0.00 0.02 0.02 0.06 0.46 0.14 0.05 0.14 0.13 0.08 0.09 0.02 0.13 0.05
0.00 0.00 0.00 0.00 0.00 0.00 0.00 0.00 0.00 0.02 0.00 0.00 0.00 0.00 0.00 0.00 0.00 0.00 0.00 0.00 0.00 0.00 0.00 0.01 0.01 0.00 0.00 0.00 0.02 0.04 0.04 0.06 0.01 0.01 0.05 0.00 0.01 0.05 0.09 0.07 0.07 0.06 0.17 0.13 0.06 0.05 0.02 0.11 0.10
MSLP
1006.54 1006.14 1005.54 1004.25 1004.61 1006.02 1004.46 1003.32 1002.82 1002.73 1001.93 1002.15 1002.54 1003.43 1004.43 1005.34 1006.62 1007.78 1008.39 1008.35 1009.70 1011.24 1012.56 1013.29 1013.86 1014.21 1014.52 1014.81 1015.28 1015.74 1016.07 1016.34 1016.52 1016.67 1016.90 1017.00 1017.14 1017.37 1017.56 1017.84 1018.00 1018.05 1018.08 1018.24 1018.43 1018.72 1018.91 1019.19 1019.51
1005.43 1004.62 1003.99 1003.20 1005.35 1005.49 1004.34 1003.72 1003.06 1002.58 1002.17 1002.18 1002.64 1003.52 1004.37 1005.02 1005.58 1006.94 1007.57 1008.48 1009.74 1011.17 1012.29 1013.25 1014.01 1014.35 1014.63 1014.89 1015.31 1015.81 1016.09 1016.33 1016.49 1016.74 1016.93 1017.02 1017.19 1017.40 1017.61 1017.74 1017.82 1017.95 1018.07 1018.22 1018.39 1018.78 1018.99 1019.28 1019.30
1005.79 1003.94 1003.96 1003.60 1006.29 1005.63 1004.27 1003.92 1003.17 1003.09 1002.92 1003.30 1003.52 1003.23 1004.36 1005.25 1006.01 1006.36 1007.46 1008.38 1009.61 1011.09 1011.99 1013.45 1014.10 1014.50 1014.64 1014.93 1015.36 1015.73 1016.07 1016.34 1016.52 1016.70 1016.85 1017.05 1017.27 1017.37 1017.52 1017.64 1017.69 1017.77 1017.85 1017.95 1018.25 1018.66 1019.05 1019.34 1019.37
1004.71 1004.32 1003.64 1003.97 1005.17 1003.58 1003.54 1003.63 1002.84 1002.73 1003.17 1003.76 1004.13 1004.93 1005.47 1005.38 1006.07 1006.82 1007.45 1008.38 1009.60 1010.82 1012.29 1013.61 1014.21 1014.61 1014.74 1014.95 1015.35 1015.73 1015.96 1016.30 1016.56 1016.80 1016.96 1017.23 1017.38 1017.46 1017.51 1017.54 1017.64 1017.66 1017.74 1017.90 1018.07 1018.48 1018.86 1018.99 1019.06
1003.71 1003.55 1003.22 1002.75 1003.20 1002.94 1002.62 1002.61 1002.83 1002.90 1003.46 1003.99 1004.57 1005.51 1006.11 1006.11 1006.74 1007.21 1007.89 1008.78 1009.31 1010.97 1012.57 1013.65 1014.29 1014.68 1014.85 1015.05 1015.43 1015.72 1015.95 1016.28 1016.61 1016.84 1017.12 1017.43 1017.55 1017.60 1017.69 1017.75 1017.81 1017.80 1017.81 1017.84 1018.08 1018.30 1018.51 1018.74 1018.64
1001.81 1003.21 1002.72 1002.28 1002.80 1002.54 1002.05 1002.09 1002.28 1003.10 1004.80 1004.94 1004.72 1005.31 1006.32 1006.64 1007.16 1007.65 1008.63 1008.85 1009.59 1011.24 1012.40 1013.56 1014.39 1014.76 1014.97 1015.16 1015.46 1015.75 1016.07 1016.38 1016.68 1016.92 1017.34 1017.51 1017.74 1017.88 1017.96 1017.93 1017.94 1018.05 1018.01 1017.96 1018.00 1018.11 1018.28 1018.31 1018.47
1001.25 1002.14 1001.65 1002.75 1003.20 1002.74 1002.23 1002.10 1002.37 1004.41 1005.88 1005.89 1006.04 1006.21 1007.12 1006.98 1007.24 1007.92 1008.98 1009.06 1009.63 1010.71 1012.22 1013.36 1014.13 1014.76 1015.11 1015.26 1015.51 1015.76 1016.09 1016.38 1016.61 1016.96 1017.31 1017.44 1017.45 1017.58 1017.80 1018.04 1017.96 1018.04 1018.08 1018.09 1017.93 1017.98 1018.08 1018.11 1018.30
1001.35 1001.69 1001.54 1002.16 1002.90 1003.12 1002.44 1002.19 1002.42 1002.82 1004.68 1004.34 1004.92 1007.14 1007.82 1006.94 1007.25 1008.12 1008.60 1009.47 1009.46 1010.78 1012.19 1012.93 1013.83 1014.56 1014.94 1015.23 1015.50 1015.76 1016.06 1016.42 1016.62 1016.94 1016.95 1017.13 1017.47 1017.77 1018.03 1018.07 1018.23 1018.11 1017.96 1018.05 1017.95 1017.91 1017.87 1018.01 1018.09
1001.30 1001.84 1002.01 1002.27 1002.33 1002.46 1002.11 1002.48 1002.62 1002.49 1003.05 1003.64 1005.08 1006.22 1006.43 1006.70 1007.10 1008.21 1008.68 1009.29 1010.41 1010.90 1011.55 1012.18 1013.13 1013.92 1014.23 1014.59 1015.14 1015.56 1015.99 1016.32 1016.61 1016.79 1016.66 1016.86 1017.15 1017.67 1017.94 1018.02 1018.02 1017.95 1017.99 1017.95 1017.93 1017.92 1018.00 1018.04 1018.08
1001.10 1001.70 1002.29 1002.57 1002.33 1002.18 1002.84 1002.06 1002.06 1002.76 1004.07 1004.60 1005.08 1005.87 1005.85 1006.52 1006.84 1007.99 1008.59 1009.51 1010.03 1010.71 1011.62 1011.76 1012.13 1012.81 1013.36 1013.90 1014.84 1015.15 1015.54 1015.86 1016.15 1016.24 1016.15 1016.68 1017.18 1016.79 1017.13 1017.58 1017.90 1017.85 1017.78 1017.97 1017.98 1017.81 1017.98 1017.91 1017.72
1001.61 1001.84 1002.17 1002.20 1002.52 1002.29 1001.82 1002.79 1001.65 1002.42 1005.30 1006.97 1005.28 1005.74 1005.78 1006.39 1006.54 1007.58 1008.22 1009.01 1010.17 1010.68 1010.77 1011.67 1011.85 1012.36 1012.87 1013.73 1014.33 1014.40 1014.81 1015.04 1015.27 1015.86 1015.87 1017.34 1016.46 1017.08 1016.96 1017.39 1018.08 1017.89 1017.74 1017.68 1017.60 1017.44 1017.56 1017.26 1017.35
1001.62 1001.83 1001.75 1001.48 1001.74 1001.97 1001.82 1001.56 1001.61 1002.09 1003.63 1004.81 1004.95 1004.56 1004.97 1005.86 1006.32 1007.35 1008.00 1008.73 1010.14 1010.73 1010.77 1011.44 1012.76 1012.36 1012.98 1013.49 1013.73 1014.10 1014.50 1014.52 1014.76 1015.49 1015.68 1016.16 1016.21 1016.50 1016.50 1017.28 1017.44 1017.37 1017.12 1017.17 1017.06 1016.87 1016.72 1016.68 1016.52
1001.20 1001.15 1001.07 1000.90 1001.10 1001.37 1001.41 1001.61 1001.62 1001.97 1002.18 1003.16 1004.04 1004.62 1004.57 1005.34 1006.10 1006.93 1007.80 1008.80 1010.07 1010.09 1010.66 1011.98 1012.23 1012.34 1013.28 1013.64 1013.48 1013.80 1014.12 1014.17 1014.61 1015.06 1015.47 1015.88 1015.89 1016.43 1016.19 1016.44 1016.73 1016.85 1017.31 1017.06 1016.96 1016.73 1016.77 1016.49 1016.26
1001.49 1001.38 1000.81 1000.60 1000.72 1000.81 1001.21 1001.47 1001.74 1002.86 1002.85 1002.55 1003.15 1003.38 1004.23 1005.15 1005.81 1006.27 1006.86 1007.94 1008.96 1009.60 1010.41 1010.92 1011.71 1012.18 1012.59 1013.44 1013.59 1014.14 1014.09 1013.97 1014.26 1014.82 1015.37 1015.54 1015.72 1016.25 1015.90 1016.14 1016.60 1017.10 1017.31 1017.03 1017.17 1016.47 1016.63 1016.48 1016.10
1001.50 1001.14 1000.24 1000.14 1000.54 1000.72 1001.10 1001.77 1002.15 1004.50 1002.68 1002.16 1002.72 1003.02 1003.82 1004.73 1005.60 1005.96 1006.51 1007.13 1008.36 1009.10 1009.93 1010.87 1011.56 1012.17 1012.77 1013.45 1013.56 1013.48 1013.92 1013.93 1013.88 1014.16 1014.93 1015.21 1015.34 1015.41 1016.16 1016.67 1017.42 1017.62 1017.42 1016.35 1016.77 1016.39 1016.52 1016.58 1016.15
1001.10 1000.75 999.81 999.94 1000.24 1000.45 1000.91 1001.55 1004.12 1005.16 1003.62 1001.86 1002.08 1002.66 1003.52 1004.09 1005.16 1005.66 1006.03 1006.83 1007.93 1008.54 1009.68 1010.69 1011.21 1012.11 1012.62 1013.22 1013.55 1013.63 1013.88 1014.27 1014.20 1014.01 1014.56 1014.75 1015.11 1015.88 1016.34 1017.20 1016.64 1016.42 1016.39 1016.33 1016.79 1017.17 1017.24 1016.87 1016.16
1000.35 999.89 999.62 999.78 999.72 1000.21 1000.56 1000.99 1001.61 1002.42 1001.44 1001.66 1001.85 1001.98 1002.91 1003.76 1004.18 1004.76 1005.17 1006.25 1007.50 1008.51 1009.76 1011.40 1011.17 1011.89 1012.56 1013.07 1013.30 1013.60 1014.11 1014.38 1014.10 1014.07 1014.31 1014.36 1014.65 1015.36 1015.68 1016.60 1016.46 1015.68 1015.99 1015.94 1016.46 1017.23 1017.01 1017.02 1017.67
1000.07 1000.01 999.47 999.62 999.74 999.90 1000.45 1000.58 1000.53 1000.46 1000.81 1001.06 1001.14 1001.93 1002.46 1003.27 1004.00 1004.78 1005.03 1005.87 1007.17 1007.88 1009.16 1009.92 1010.71 1011.70 1012.28 1012.78 1013.45 1013.89 1014.09 1014.30 1014.11 1013.76 1013.88 1014.24 1014.29 1014.71 1015.24 1015.57 1015.59 1014.90 1014.91 1015.23 1016.03 1016.96 1016.92 1016.72 1017.55
1000.41 1000.22 999.91 999.47 999.49 1000.15 1000.89 1001.38 1001.82 1003.50 1002.78 1001.08 1001.07 1001.47 1001.98 1003.02 1002.93 1004.28 1004.74 1005.40 1006.60 1007.51 1008.47 1009.28 1010.36 1011.55 1012.11 1012.80 1013.56 1014.11 1014.25 1014.32 1014.15 1013.71 1013.60 1014.01 1013.96 1014.07 1014.48 1014.80 1014.82 1014.41 1014.83 1015.31 1015.80 1015.86 1015.99 1015.58 1016.77
1000.37 1000.10 999.49 998.76 999.37 1000.04 1000.87 1003.10 1003.99 1005.06 1004.69 1004.81 1001.42 1001.36 1002.48 1005.08 1005.17 1004.85 1004.63 1005.05 1006.26 1007.11 1008.21 1008.91 1009.85 1010.81 1011.54 1012.00 1012.53 1013.55 1013.97 1014.26 1014.08 1013.67 1013.63 1013.72 1013.85 1013.92 1014.19 1014.53 1014.68 1014.77 1014.98 1016.04 1016.17 1016.11 1015.49 1015.39 1016.18
1000.04 999.49 998.82 998.90 999.37 999.97 1000.73 1004.38 1005.72 1006.71 1006.54 1004.54 1002.90 1001.43 1002.16 1004.24 1005.56 1004.98 1004.90 1004.91 1005.82 1006.74 1007.91 1008.55 1009.34 1010.23 1010.98 1011.60 1012.33 1013.24 1013.87 1014.13 1014.17 1013.85 1013.86 1013.73 1013.62 1013.68 1013.85 1014.31 1014.49 1014.74 1015.33 1015.80 1015.30 1015.76 1015.40 1015.32 1016.35
999.19 998.84 998.96 999.04 999.38 999.71 1000.30 1005.16 1007.46 1008.12 1006.76 1005.13 1003.52 1001.63 1001.33 1002.13 1003.48 1003.93 1004.25 1004.75 1005.82 1006.07 1007.04 1007.92 1008.75 1009.74 1010.48 1011.62 1012.24 1012.86 1013.31 1013.63 1013.62 1013.43 1013.56 1013.53 1013.42 1013.51 1013.64 1013.84 1014.07 1014.45 1015.04 1015.74 1015.91 1015.41 1015.00 1014.88 1015.18
999.22 999.09 999.10 999.01 999.15 999.46 1000.52 1003.57 1006.04 1007.37 1006.92 1004.42 1002.71 1001.21 1000.31 1000.57 1001.58 1003.63 1003.56 1005.61 1007.55 1007.97 1007.94 1007.54 1008.06 1009.28 1010.17 1011.13 1011.84 1012.31 1012.94 1013.08 1012.82 1012.78 1012.80 1012.82 1013.21 1013.31 1013.52 1013.60 1013.91 1014.27 1014.40 1014.68 1014.98 1014.99 1014.85 1014.87 1014.97
999.17 999.07 998.78 998.50 998.48 999.16 1001.34 1002.90 1005.03 1005.03 1003.38 1002.33 1000.70 1000.14 999.71 999.84 1001.49 1002.82 1003.05 1006.32 1006.70 1009.25 1010.12 1007.90 1007.71 1008.87 1009.89 1010.56 1011.36 1011.91 1012.28 1012.53 1012.52 1013.56 1012.97 1013.17 1012.97 1013.45 1013.51 1013.51 1013.73 1014.06 1014.27 1014.27 1014.37 1014.63 1014.81 1014.80 1014.88
998.81 998.41 997.77 997.80 997.80 1000.11 1000.69 1002.92 1006.27 1003.86 1003.10 1001.34 1000.27 1000.16 999.89 999.74 999.93 1000.47 1002.74 1006.30 1009.05 1007.85 1007.88 1007.15 1007.82 1008.36 1009.56 1010.11 1011.01 1011.61 1011.94 1012.24 1012.19 1013.06 1013.08 1012.66 1012.62 1013.24 1013.22 1013.44 1013.75 1014.04 1014.10 1014.19 1014.28 1014.64 1014.77 1014.79 1014.71
998.16 997.79 997.54 997.18 997.49 998.88 1001.33 1003.35 1006.50 1007.26 1003.62 1001.62 999.88 999.54 999.75 999.90 999.83 1000.39 1002.98 1005.29 1008.42 1007.41 1006.97 1008.59 1007.87 1008.12 1009.43 1009.72 1010.43 1011.10 1011.61 1011.98 1012.10 1012.05 1012.13 1012.08 1012.36 1012.59 1012.71 1013.05 1013.29 1013.62 1013.77 1014.32 1014.40 1014.71 1014.84 1014.84 1014.68
997.75 997.43 997.31 997.28 997.31 998.96 1001.21 1004.69 1007.18 1007.29 1004.29 1002.33 1001.50 999.32 999.68 1000.25 1000.50 1000.96 1001.47 1005.22 1006.06 1006.30 1008.07 1007.57 1007.29 1008.34 1009.03 1009.43 1010.24 1010.57 1011.12 1011.64 1011.84 1011.98 1012.20 1012.19 1012.19 1012.30 1012.45 1013.09 1013.62 1013.59 1013.67 1014.03 1014.49 1014.82 1014.74 1014.78 1014.69
998.19 998.00 997.71 997.45 997.91 999.24 1000.16 1002.50 1006.12 1007.24 1005.71 1003.17 1002.01 1000.07 1000.09 1000.63 1001.23 1001.46 1001.70 1002.03 1004.16 1005.36 1005.67 1006.22 1006.63 1007.66 1008.68 1008.87 1009.88 1010.32 1010.80 1011.18 1011.48 1011.63 1011.78 1011.61 1011.64 1012.10 1012.99 1013.58 1014.00 1014.45 1013.77 1013.58 1014.21 1014.58 1014.66 1014.94 1014.73
997.53 997.68 998.66 998.64 998.40 998.69 1000.04 1002.57 1004.73 1005.40 1003.49 1003.10 1000.93 1000.61 1000.59 1000.74 1001.48 1001.77 1001.86 1002.35 1003.21 1003.98 1005.47 1006.69 1007.79 1008.16 1008.61 1008.66 1009.19 1009.87 1009.98 1010.47 1010.98 1011.18 1011.33 1011.20 1011.48 1012.02 1013.27 1013.49 1014.14 1013.70 1013.97 1013.43 1013.86 1014.34 1014.50 1014.74 1014.75
998.12 997.49 997.93 998.08 997.94 998.32 1000.21 1003.50 1003.85 1004.46 1004.32 1003.30 1001.97 1001.43 1001.53 1001.32 1001.52 1001.89 1002.09 1002.30 1003.19 1004.18 1005.94 1006.94 1007.28 1007.20 1008.05 1008.12 1008.66 1009.36 1009.78 1010.30 1010.63 1010.69 1010.76 1010.91 1011.13 1011.80 1012.64 1013.38 1013.31 1013.61 1013.36 1013.23 1013.62 1014.07 1014.35 1014.47 1014.54
Thickness
5858 5861 5864 5859 5798 5783 5805 5822 5842 5823 5836 5855 5857 5838 5825 5823 5792 5769 5823 5829 5819 5805 5792 5786 5782 5779 5778 5776 5771 5767 5764 5761 5759 5758 5757 5757 5755 5752 5750 5747 5745 5743 5742 5741 5739 5736 5735 5733 5732
5866 5873 5867 5809 5789 5786 5804 5832 5822 5839 5851 5861 5855 5842 5827 5813 5834 5822 5822 5828 5818 5805 5795 5787 5782 5779 5779 5777 5772 5767 5765 5762 5760 5759 5758 5757 5755 5753 5751 5749 5747 5744 5743 5741 5739 5737 5735 5735 5734
5864 5877 5841 5801 5770 5769 5801 5827 5835 5841 5851 5844 5832 5853 5834 5818 5832 5832 5834 5831 5819 5806 5797 5787 5782 5778 5779 5777 5773 5769 5766 5763 5762 5760 5759 5757 5755 5754 5752 5750 5749 5746 5746 5743 5741 5737 5734 5734 5734
5863 5857 5853 5817 5765 5827 5826 5829 5845 5843 5847 5847 5841 5815 5834 5848 5837 5838 5838 5833 5819 5810 5796 5786 5781 5778 5777 5777 5774 5770 5769 5765 5762 5760 5759 5757 5756 5754 5753 5752 5749 5749 5747 5746 5743 5740 5737 5737 5737
5868 5848 5818 5829 5824 5837 5846 5849 5843 5836 5840 5840 5837 5810 5814 5837 5844 5841 5833 5828 5820 5808 5795 5786 5781 5778 5777 5777 5774 5771 5770 5766 5763 5761 5759 5757 5755 5753 5752 5751 5749 5747 5748 5748 5745 5743 5741 5740 5741
5852 5839 5818 5814 5820 5840 5850 5856 5852 5841 5826 5833 5831 5824 5818 5841 5835 5834 5830 5825 5821 5804 5796 5787 5781 5779 5778 5776 5774 5772 5769 5767 5763 5761 5757 5754 5751 5749 5748 5749 5748 5746 5747 5748 5747 5745 5744 5744 5742
5847 5830 5833 5816 5804 5822 5839 5859 5844 5817 5780 5808 5826 5771 5808 5825 5838 5833 5825 5825 5821 5809 5797 5788 5782 5779 5777 5776 5775 5773 5770 5767 5764 5760 5756 5755 5756 5755 5751 5746 5748 5748 5748 5747 5748 5747 5746 5747 5745
5860 5847 5834 5830 5804 5804 5843 5852 5856 5845 5820 5849 5843 5787 5784 5823 5837 5832 5827 5820 5822 5810 5798 5791 5785 5780 5779 5777 5775 5773 5770 5766 5763 5758 5760 5761 5758 5755 5749 5747 5744 5748 5749 5749 5750 5749 5750 5748 5748
5875 5826 5811 5819 5821 5824 5851 5837 5855 5864 5848 5848 5834 5822 5827 5836 5837 5825 5819 5816 5810 5807 5804 5798 5790 5785 5785 5782 5779 5775 5771 5768 5764 5760 5764 5765 5764 5758 5753 5749 5747 5749 5748 5749 5750 5750 5749 5748 5749
5851 5821 5818 5837 5841 5834 5832 5845 5850 5842 5824 5827 5830 5834 5839 5833 5832 5819 5813 5805 5807 5805 5800 5803 5800 5794 5792 5788 5782 5779 5775 5773 5770 5767 5772 5768 5763 5769 5766 5754 5749 5750 5752 5749 5751 5752 5750 5751 5752
5847 5820 5838 5841 5843 5848 5846 5834 5861 5842 5795 5787 5820 5823 5833 5830 5829 5822 5817 5814 5806 5806 5808 5801 5801 5799 5795 5791 5786 5785 5782 5781 5778 5772 5776 5756 5751 5765 5764 5752 5750 5752 5753 5753 5756 5757 5755 5757 5760
5832 5846 5847 5850 5852 5846 5840 5856 5847 5850 5828 5831 5835 5839 5839 5829 5827 5820 5817 5816 5807 5805 5807 5781 5787 5801 5795 5792 5791 5789 5785 5785 5785 5778 5776 5771 5769 5765 5763 5760 5760 5762 5762 5761 5761 5764 5763 5764 5766
5843 5849 5856 5860 5857 5853 5855 5844 5847 5847 5858 5854 5845 5839 5837 5832 5829 5827 5821 5816 5809 5809 5810 5799 5800 5800 5793 5792 5793 5791 5788 5788 5786 5784 5780 5774 5768 5766 5769 5770 5770 5763 5761 5759 5763 5767 5766 5769 5768
5851 5851 5854 5861 5857 5858 5844 5844 5848 5838 5847 5851 5846 5843 5837 5830 5829 5829 5825 5820 5815 5813 5809 5809 5805 5801 5797 5793 5792 5789 5789 5791 5788 5785 5781 5779 5774 5771 5777 5779 5770 5770 5759 5761 5757 5766 5767 5770 5772
5854 5836 5854 5857 5856 5849 5855 5828 5832 5819 5850 5847 5841 5840 5837 5831 5829 5827 5828 5824 5820 5817 5813 5806 5804 5800 5796 5791 5791 5792 5790 5791 5791 5789 5783 5781 5780 5780 5773 5770 5763 5762 5747 5768 5763 5770 5769 5769 5772
5840 5844 5829 5853 5854 5854 5848 5813 5802 5795 5817 5844 5843 5838 5833 5833 5828 5831 5832 5829 5824 5821 5812 5807 5807 5800 5796 5792 5791 5790 5789 5787 5788 5790 5786 5784 5782 5769 5770 5764 5769 5767 5770 5768 5768 5763 5763 5765 5776
5841 5821 5833 5836 5860 5848 5843 5826 5842 5835 5853 5843 5842 5844 5835 5830 5833 5835 5837 5832 5824 5820 5809 5787 5806 5799 5796 5792 5791 5789 5786 5785 5788 5789 5788 5787 5785 5774 5776 5766 5771 5777 5778 5777 5772 5766 5762 5766 5756
5819 5822 5838 5828 5848 5849 5836 5837 5860 5871 5859 5851 5850 5844 5840 5832 5831 5834 5836 5834 5826 5823 5814 5811 5807 5800 5795 5793 5789 5785 5785 5784 5788 5790 5790 5787 5787 5783 5776 5776 5777 5785 5783 5785 5777 5767 5769 5768 5758
5836 5829 5825 5842 5855 5839 5829 5831 5840 5811 5825 5852 5850 5842 5839 5833 5843 5838 5837 5835 5828 5823 5816 5811 5803 5797 5795 5789 5782 5778 5777 5780 5784 5789 5789 5787 5788 5788 5787 5785 5787 5791 5788 5782 5778 5777 5777 5783 5769
5834 5824 5830 5856 5854 5842 5834 5807 5808 5804 5805 5794 5849 5846 5823 5785 5809 5820 5831 5832 5826 5820 5814 5810 5805 5799 5797 5794 5790 5782 5778 5778 5782 5785 5786 5787 5787 5788 5788 5788 5788 5789 5786 5774 5774 5773 5781 5782 5773
5830 5829 5840 5834 5845 5847 5838 5781 5782 5788 5794 5813 5827 5852 5838 5803 5772 5814 5826 5828 5823 5818 5812 5809 5806 5802 5799 5795 5790 5783 5778 5777 5776 5780 5782 5784 5787 5789 5789 5788 5789 5789 5783 5777 5776 5779 5780 5777 5769
5823 5857 5846 5837 5825 5803 5847 5739 5759 5768 5777 5795 5815 5840 5849 5832 5824 5822 5829 5829 5822 5820 5819 5814 5808 5803 5801 5792 5787 5782 5776 5771 5776 5781 5783 5783 5786 5788 5790 5790 5790 5790 5786 5775 5775 5781 5786 5787 5778
5830 5852 5841 5839 5829 5830 5829 5783 5772 5773 5762 5792 5815 5839 5856 5858 5848 5830 5828 5806 5794 5796 5794 5809 5810 5801 5800 5793 5788 5784 5778 5779 5782 5785 5786 5787 5787 5787 5788 5791 5790 5790 5791 5790 5787 5786 5787 5786 5784
5854 5841 5841 5844 5841 5811 5807 5805 5777 5787 5805 5821 5848 5853 5858 5862 5841 5819 5833 5802 5802 5787 5765 5797 5807 5800 5795 5793 5788 5785 5781 5780 5783 5768 5769 5779 5786 5784 5787 5789 5789 5788 5789 5789 5790 5788 5786 5785 5785
5846 5832 5807 5801 5800 5782 5818 5803 5754 5814 5825 5839 5845 5846 5853 5861 5860 5856 5826 5790 5771 5793 5779 5802 5802 5799 5792 5790 5785 5783 5782 5782 5784 5771 5769 5780 5784 5782 5787 5787 5787 5787 5787 5787 5788 5785 5784 5783 5783
5840 5842 5815 5787 5803 5803 5810 5784 5757 5764 5833 5849 5856 5855 5854 5854 5858 5855 5825 5785 5772 5795 5803 5790 5797 5799 5790 5790 5787 5785 5784 5781 5781 5785 5784 5786 5785 5786 5791 5791 5791 5790 5788 5783 5784 5782 5782 5781 5782
5841 5831 5862 5833 5848 5812 5806 5783 5769 5771 5809 5828 5819 5851 5851 5847 5849 5845 5845 5795 5789 5792 5787 5799 5803 5796 5792 5790 5786 5786 5784 5781 5782 5784 5784 5785 5787 5790 5793 5789 5786 5788 5789 5786 5783 5779 5780 5780 5781
5845 5858 5821 5836 5794 5776 5816 5802 5761 5751 5768 5805 5818 5840 5845 5846 5842 5842 5839 5842 5817 5810 5816 5817 5813 5802 5794 5792 5786 5784 5783 5784 5785 5785 5785 5789 5792 5792 5782 5778 5776 5775 5786 5789 5783 5780 5779 5777 5778
5846 5835 5822 5829 5828 5803 5794 5778 5783 5779 5802 5802 5840 5840 5840 5843 5839 5838 5841 5839 5836 5831 5821 5809 5796 5795 5790 5792 5789 5785 5786 5786 5785 5786 5786 5790 5792 5788 5777 5770 5766 5780 5779 5786 5781 5778 5777 5775 5774
5850 5850 5843 5816 5813 5835 5811 5780 5809 5803 5783 5825 5831 5834 5836 5838 5840 5839 5839 5840 5833 5826 5809 5802 5802 5803 5793 5794 5792 5788 5787 5785 5783 5786 5788 5791 5792 5789 5778 5776 5778 5775 5783 5784 5780 5776 5776 5775 5773